Tracking 21472 objects as of 22-Sep-2020
HD Live streaming from Space Station
objects crossing your sky now

XJS G

Track XJS G now!
10-day predictions


NORAD ID: 45611
Int'l Code: 2020-032A
Perigee: 481.7 km
Apogee: 493.1 km
Inclination: 35.0 °
Period: 94.2 minutes
Semi major axis: 6858 km
RCS: Unknown
Launch date: May 29, 2020
Source: People's Republic of China (PRC)
Launch site: Xichang Space Center, China (XSC)
aabbcc
Your satellite tracking list
Your tracking list is empty




NASA's NSSDC Master Catalog

Two Line Element Set (TLE):
1 45611U 20032A   20265.87980370  .00004725  00000-0  16718-3 0  9995
2 45611  35.0407 158.3829 0008325  28.9412  21.1202 15.28523542 17584
Source of the keplerian elements: AFSPC